Troy, MI

1:14 PM EST on December 06, 2019 (GMT -0500)
Troy

Weather History for KVLL - November, 2019

Change the Weather History Date:

Saturday, November 16, 2019

  Actual Average (KDET) Record (KDET)
Temperature  
Mean Temperature 26 °F -  
Max Temperature 32 °F 46 °F 69 °F (1953)
Min Temperature 21 °F 32 °F 21 °F (1955)
Degree Days  
Heating Degree Days 38    
Moisture  
Dew Point 20 °F    
Average Humidity 73    
Maximum Humidity 84    
Minimum Humidity 66    
Precipitation  
Precipitation 0.00 in - - ()
Sea Level Pressure  
Sea Level Pressure 30.44 in    
Wind  
Wind Speed 5 mph ()    
Max Wind Speed 12 mph    
Max Gust Speed -    
Visibility 10.0 miles    
Events      
Averages and records for this station are not official NWS values.
T = Trace of Precipitation, MM = Missing Value Source: Averaged Metar Reports

Daily Weather History Graph

Daily Weather History Graph

Search for Another Location

Airport or City:

Astronomy

Nov. 16, 2019 Rise Set
Actual Time 7:24 AM EST 5:09 PM EST
Civil Twilight 6:54 AM EST 5:39 PM EST
Nautical Twilight 6:20 AM EST 6:14 PM EST
Astronomical Twilight 5:47 AM EST 6:47 PM EST
Moon 8:39 PM EST (11/16) 11:20 AM EST (11/16)
Length of Visible Light 10h 45m
Length of Day
9h 44m
Waning Gibbous, 82% of the Moon is Illuminated
Nov 16
Waning Gibbous
Nov 19
Last Quarter
Nov 26
New
Dec 4
First Quarter
Dec 12
Full

Hourly Weather History & Observations

Time (EST) Temp. Windchill Dew Point Humidity Pressure Visibility Wind Dir Wind Speed Gust Speed Precip Events Conditions
12:15 AM 30.2 °F 24.3 °F 24.8 °F 80% 30.45 in 10.0 mi North 5.8 mph - N/A   Clear
12:16 AM 30.2 °F 25.4 °F 24.8 °F 80% 30.45 in 10.0 mi North 4.6 mph - N/A   Clear
12:55 AM 29.3 °F 24.3 °F 23.0 °F 77% 30.46 in 7.0 mi NNE 4.6 mph - N/A   Clear
1:15 AM 28.6 °F 21.5 °F 22.6 °F 78% 30.46 in 10.0 mi North 6.9 mph - N/A   Clear
1:16 AM 28.4 °F 22.2 °F 22.5 °F 78% 30.46 in 10.0 mi North 5.8 mph - N/A   Clear
1:35 AM 28.2 °F 23.1 °F 21.9 °F 77% 30.46 in 10.0 mi NNE 4.6 mph - N/A   Clear
1:55 AM 27.5 °F 22.2 °F 21.2 °F 77% 30.46 in 10.0 mi North 4.6 mph - N/A   Clear
2:15 AM 27.5 °F 23.6 °F 20.7 °F 75% 30.46 in 10.0 mi North 3.5 mph - N/A   Clear
2:35 AM 26.8 °F 22.8 °F 20.1 °F 76% 30.46 in 10.0 mi North 3.5 mph - N/A   Clear
2:36 AM 26.6 °F 21.2 °F 20.1 °F 77% 30.46 in 10.0 mi North 4.6 mph - N/A   Clear
2:55 AM 26.4 °F 22.4 °F 19.6 °F 75% 30.46 in 10.0 mi NNE 3.5 mph - N/A   Clear
3:15 AM 25.7 °F 21.5 °F 19.4 °F 77% 30.46 in 10.0 mi North 3.5 mph - N/A   Clear
3:35 AM 25.3 °F 19.7 °F 19.4 °F 78% 30.46 in 10.0 mi NE 4.6 mph - N/A   Clear
3:36 AM 25.3 °F 19.7 °F 19.4 °F 78% 30.46 in 10.0 mi NE 4.6 mph - N/A   Clear
3:55 AM 25.7 °F 18.0 °F 19.4 °F 77% 30.46 in 10.0 mi NE 6.9 mph - N/A   Clear
3:56 AM 25.7 °F 18.0 °F 19.4 °F 77% 30.46 in 10.0 mi NE 6.9 mph - N/A   Clear
4:15 AM 25.5 °F 17.8 °F 19.4 °F 78% 30.46 in 10.0 mi NE 6.9 mph - N/A   Clear
4:35 AM 25.2 °F 17.3 °F 19.4 °F 79% 30.46 in 10.0 mi NE 6.9 mph - N/A   Clear
4:36 AM 25.2 °F 19.5 °F 19.4 °F 79% 30.46 in 10.0 mi NNE 4.6 mph - N/A   Clear
4:55 AM 24.8 °F 20.5 °F 19.4 °F 80% 30.46 in 10.0 mi NNE 3.5 mph - N/A   Clear
4:56 AM 24.8 °F 20.5 °F 19.4 °F 80% 30.46 in 10.0 mi NNE 3.5 mph - N/A   Clear
5:15 AM 24.8 °F 16.1 °F 19.2 °F 79% 30.47 in 10.0 mi NE 8.1 mph - N/A   Clear
5:16 AM 24.8 °F 16.1 °F 19.0 °F 79% 30.47 in 10.0 mi NE 8.1 mph - N/A   Clear
5:35 AM 24.8 °F 16.1 °F 18.9 °F 78% 30.47 in 10.0 mi NE 8.1 mph - N/A   Clear
5:55 AM 24.3 °F 16.3 °F 18.5 °F 79% 30.48 in 10.0 mi NE 6.9 mph - N/A   Clear
6:15 AM 23.9 °F 16.8 °F 18.5 °F 80% 30.48 in 10.0 mi NE 5.8 mph - N/A   Clear
6:16 AM 23.9 °F 18.0 °F 18.5 °F 80% 30.48 in 10.0 mi NE 4.6 mph - N/A   Clear
6:35 AM 23.7 °F 19.3 °F 18.3 °F 80% 30.49 in 10.0 mi NNE 3.5 mph - N/A   Clear
6:55 AM 22.1 °F - 17.8 °F 83% 30.50 in 10.0 mi Calm Calm - N/A   Clear
6:56 AM 22.1 °F - 17.8 °F 83% 30.50 in 10.0 mi Calm Calm - N/A   Clear
7:15 AM 21.7 °F 17.0 °F 17.6 °F 84% 30.50 in 10.0 mi North 3.5 mph - N/A   Clear
7:35 AM 21.6 °F 15.3 °F 17.4 °F 84% 30.50 in 10.0 mi NNE 4.6 mph - N/A   Clear
7:36 AM 21.7 °F 15.5 °F 17.4 °F 83% 30.50 in 10.0 mi NNE 4.6 mph - N/A   Clear
7:55 AM 23.0 °F 15.8 °F 17.1 °F 78% 30.50 in 10.0 mi NE 5.8 mph - N/A   Clear
8:15 AM 23.0 °F 15.8 °F 16.7 °F 77% 30.51 in 10.0 mi NE 5.8 mph - N/A   Clear
8:35 AM 23.7 °F 17.8 °F 16.5 °F 74% 30.51 in 10.0 mi NE 4.6 mph - N/A   Clear
8:55 AM 23.9 °F 16.8 °F 16.3 °F 73% 30.52 in 10.0 mi ENE 5.8 mph - N/A   Clear
8:56 AM 23.9 °F 18.0 °F 16.3 °F 73% 30.52 in 10.0 mi ENE 4.6 mph - N/A   Clear
9:15 AM 23.9 °F 16.8 °F 16.0 °F 72% 30.52 in 10.0 mi NE 5.8 mph - N/A   Clear
9:16 AM 23.9 °F 15.8 °F 16.2 °F 72% 30.52 in 10.0 mi NE 6.9 mph - N/A   Clear
9:35 AM 24.4 °F 16.5 °F 16.0 °F 70% 30.52 in 10.0 mi ENE 6.9 mph - N/A   Clear
9:55 AM 25.2 °F 18.3 °F 16.7 °F 70% 30.52 in 10.0 mi ENE 5.8 mph - N/A   Clear
10:15 AM 26.6 °F 21.2 °F 17.6 °F 69% 30.53 in 10.0 mi NE 4.6 mph - N/A   Clear
10:16 AM 26.8 °F 20.2 °F 17.6 °F 68% 30.53 in 10.0 mi NE 5.8 mph - N/A   Clear
10:35 AM 28.0 °F 21.7 °F 18.5 °F 67% 30.53 in 10.0 mi ENE 5.8 mph - N/A   Clear
10:36 AM 28.0 °F 21.7 °F 18.5 °F 67% 30.53 in 10.0 mi ENE 5.8 mph - N/A   Clear
10:55 AM 28.8 °F 22.6 °F 19.2 °F 68% 30.53 in 10.0 mi East 5.8 mph - N/A   Clear
11:15 AM 29.3 °F 24.3 °F 19.9 °F 68% 30.53 in 10.0 mi ENE 4.6 mph - N/A   Clear
11:16 AM 29.3 °F 23.2 °F 19.8 °F 68% 30.53 in 10.0 mi ENE 5.8 mph - N/A   Clear
11:36 AM 29.8 °F 24.9 °F 20.1 °F 67% 30.52 in 10.0 mi ENE 4.6 mph - N/A   Clear
11:55 AM 30.2 °F 25.4 °F 20.8 °F 68% 30.51 in 10.0 mi ENE 4.6 mph - N/A   Clear
12:15 PM 31.1 °F 25.4 °F 21.4 °F 67% 30.50 in 10.0 mi ENE 5.8 mph - N/A   Clear
12:16 PM 31.1 °F 24.5 °F 21.4 °F 67% 30.50 in 10.0 mi ENE 6.9 mph - N/A   Clear
12:35 PM 31.6 °F 28.3 °F 21.9 °F 67% 30.49 in 10.0 mi ENE 3.5 mph - N/A   Clear
12:55 PM 31.8 °F 26.2 °F 21.9 °F 67% 30.48 in 10.0 mi ENE 5.8 mph - N/A   Clear
1:15 PM 32.0 °F 24.8 °F 22.6 °F 68% 30.47 in 10.0 mi NE 8.1 mph - N/A   Clear
1:16 PM 32.0 °F 25.6 °F 22.6 °F 68% 30.47 in 10.0 mi ENE 6.9 mph - N/A   Clear
1:35 PM 32.0 °F 28.7 °F 22.3 °F 67% 30.46 in 10.0 mi ENE 3.5 mph - N/A   Clear
1:55 PM 32.0 °F 26.4 °F 22.3 °F 67% 30.45 in 10.0 mi NE 5.8 mph - N/A   Clear
1:56 PM 32.0 °F 26.4 °F 22.3 °F 67% 30.45 in 10.0 mi NE 5.8 mph - N/A   Clear
2:15 PM 31.8 °F 24.6 °F 22.1 °F 67% 30.44 in 10.0 mi ENE 8.1 mph - N/A   Scattered Clouds
2:35 PM 31.5 °F 25.8 °F 21.9 °F 68% 30.43 in 10.0 mi ENE 5.8 mph - N/A   Mostly Cloudy
2:55 PM 32.0 °F 24.8 °F 22.3 °F 67% 30.42 in 10.0 mi ENE 8.1 mph - N/A   Scattered Clouds
3:15 PM 31.8 °F 24.6 °F 22.6 °F 69% 30.42 in 10.0 mi NE 8.1 mph - N/A   Scattered Clouds
3:35 PM 32.2 °F 25.8 °F 22.8 °F 68% 30.41 in 10.0 mi NE 6.9 mph - N/A   Scattered Clouds
3:36 PM 32.2 °F 26.7 °F 22.8 °F 68% 30.41 in 10.0 mi NE 5.8 mph - N/A   Scattered Clouds
3:55 PM 32.0 °F 24.8 °F 22.3 °F 67% 30.41 in 10.0 mi ENE 8.1 mph - N/A   Mostly Cloudy
3:56 PM 32.0 °F 24.8 °F 22.1 °F 67% 30.41 in 10.0 mi ENE 8.1 mph - N/A   Mostly Cloudy
4:15 PM 31.6 °F 23.1 °F 22.5 °F 69% 30.40 in 10.0 mi ENE 10.4 mph - N/A   Mostly Cloudy
4:16 PM 31.8 °F 22.8 °F 22.5 °F 68% 30.40 in 10.0 mi ENE 11.5 mph - N/A   Mostly Cloudy
4:35 PM 31.8 °F 25.4 °F 22.6 °F 69% 30.40 in 10.0 mi NE 6.9 mph - N/A   Scattered Clouds
4:36 PM 31.8 °F 24.6 °F 22.6 °F 69% 30.40 in 10.0 mi ENE 8.1 mph - N/A   Clear
4:55 PM 31.6 °F 25.1 °F 23.0 °F 70% 30.40 in 10.0 mi ENE 6.9 mph - N/A   Clear
5:15 PM 30.7 °F 22.6 °F 22.1 °F 70% 30.40 in 10.0 mi ENE 9.2 mph - N/A   Clear
5:16 PM 30.7 °F 22.6 °F 22.3 °F 71% 30.40 in 10.0 mi ENE 9.2 mph - N/A   Clear
5:35 PM 30.2 °F 21.9 °F 22.1 °F 72% 30.40 in 10.0 mi East 9.2 mph - N/A   Clear
5:55 PM 29.7 °F 22.0 °F 21.7 °F 72% 30.40 in 10.0 mi East 8.1 mph - N/A   Clear
6:15 PM 29.1 °F 21.3 °F 21.9 °F 74% 30.40 in 10.0 mi East 8.1 mph - N/A   Clear
6:16 PM 29.1 °F 22.1 °F 21.9 °F 74% 30.40 in 10.0 mi East 6.9 mph - N/A   Clear
6:35 PM 28.6 °F 22.4 °F 21.4 °F 74% 30.40 in 10.0 mi East 5.8 mph - N/A   Clear
6:36 PM 28.6 °F 21.5 °F 21.2 °F 74% 30.40 in 10.0 mi East 6.9 mph - N/A   Clear
6:55 PM 28.4 °F 21.2 °F 19.4 °F 69% 30.40 in 10.0 mi ENE 6.9 mph - N/A   Clear
6:56 PM 28.4 °F 21.2 °F 19.4 °F 69% 30.40 in 10.0 mi ENE 6.9 mph - N/A   Clear
7:15 PM 28.2 °F 20.2 °F 19.0 °F 68% 30.39 in 10.0 mi ENE 8.1 mph - N/A   Clear
7:16 PM 28.2 °F 20.2 °F 18.9 °F 68% 30.39 in 10.0 mi ENE 8.1 mph - N/A   Clear
7:35 PM 27.9 °F 20.6 °F 18.0 °F 66% 30.39 in 10.0 mi NE 6.9 mph - N/A   Clear
7:36 PM 27.9 °F 19.8 °F 18.0 °F 66% 30.38 in 10.0 mi NE 8.1 mph - N/A   Clear
7:55 PM 27.5 °F 22.2 °F 17.8 °F 67% 30.38 in 10.0 mi NE 4.6 mph - N/A   Clear
7:56 PM 27.5 °F 22.2 °F 17.8 °F 67% 30.38 in 10.0 mi NE 4.6 mph - N/A   Clear
8:15 PM 27.3 °F 20.9 °F 17.8 °F 67% 30.37 in 10.0 mi NE 5.8 mph - N/A   Clear
8:35 PM 26.8 °F 18.5 °F 17.8 °F 69% 30.36 in 10.0 mi NE 8.1 mph - N/A   Clear
8:55 PM 26.4 °F 18.9 °F 18.1 °F 71% 30.35 in 10.0 mi NE 6.9 mph - N/A   Scattered Clouds
9:15 PM 26.6 °F 19.1 °F 18.5 °F 71% 30.35 in 10.0 mi NE 6.9 mph - N/A   Overcast
9:16 PM 26.6 °F 19.1 °F 18.5 °F 71% 30.35 in 10.0 mi NE 6.9 mph - N/A   Overcast
9:35 PM 26.4 °F 18.9 °F 18.5 °F 72% 30.35 in 10.0 mi NE 6.9 mph - N/A   Mostly Cloudy
9:55 PM 26.2 °F 18.6 °F 18.9 °F 74% 30.34 in 10.0 mi NE 6.9 mph - N/A   Scattered Clouds
9:56 PM 26.2 °F 19.6 °F 18.9 °F 74% 30.34 in 10.0 mi NE 5.8 mph - N/A   Scattered Clouds
10:15 PM 25.7 °F 18.0 °F 18.9 °F 75% 30.34 in 10.0 mi NE 6.9 mph - N/A   Clear
10:35 PM 25.5 °F 16.9 °F 18.9 °F 76% 30.33 in 10.0 mi NE 8.1 mph - N/A   Clear
10:55 PM 25.3 °F 17.6 °F 19.0 °F 77% 30.31 in 10.0 mi NE 6.9 mph - N/A   Clear
10:56 PM 25.3 °F 17.6 °F 19.0 °F 77% 30.31 in 10.0 mi NE 6.9 mph - N/A   Clear
11:15 PM 24.8 °F 16.9 °F 19.0 °F 79% 30.31 in 10.0 mi NE 6.9 mph - N/A   Clear
11:35 PM 24.8 °F 16.1 °F 19.4 °F 80% 30.30 in 10.0 mi NNE 8.1 mph - N/A   Clear
11:55 PM 24.8 °F 16.9 °F 19.4 °F 80% 30.30 in 10.0 mi NE 6.9 mph - N/A   Clear
11:56 PM 24.8 °F 17.9 °F 19.4 °F 80% 30.30 in 10.0 mi NE 5.8 mph - N/A   Clear